Zurück zum Katalog

KUIPER-00505

AktivKommunikationLEO
NORAD 68886·PAYLOAD·🇺🇸 United States

Gestartet Apr 28, 2026 von Cape Canaveral Space Force Station

Loading…

Nächste Überflüge (nächste 24 Stunden)

TLE

AktuellSource: CelesTrak SupGP

Epoche: Sep 14, 2026, 17:23 UTC

1 68886C 26095Y   26257.72443287  .00003700  00000+0  48431-3 0  2576
2 68886  51.9009 209.7352 0000630  82.9199 145.6222 14.79924141    12

Verfolge KUIPER-00505 in Echtzeit mit AllMySat

Download on the App Store